Weather History for Beckley, WV

Change the Weather History Date:

Sunday, March 16, 2014

  Actual Average Record
Temperature  
Mean Temperature 39 °F 42 °F  
Max Temperature 46 °F 52 °F 82 °F (1927)
Min Temperature 31 °F 32 °F 5 °F (1911)
Degree Days  
Heating Degree Days 26 23  
Month to date heating degree days 437 405  
Since 1 July heating degree days 4645 4406  
Cooling Degree Days 0 0  
Month to date cooling degree days 0 0  
Year to date cooling degree days 0 0  
Moisture  
Dew Point 29 °F    
Average Humidity 67    
Maximum Humidity 92    
Minimum Humidity 42    
Precipitation  
Precipitation 0.43 in 0.12 in 1.22 in (1955)
Month to date precipitation 1.46 1.80  
Year to date precipitation 6.56 7.37  
Snow  
Snow 0.00 in - - ()
Month to date snowfall 7.7  
Since 1 September snowfall 68.4  
Snow Depth 0.00 in    
Sea Level Pressure  
Sea Level Pressure 29.91 in    
Wind  
Wind Speed 6 mph (East)    
Max Wind Speed 17 mph    
Max Gust Speed 24 mph    
Visibility 5 miles    
Events Rain , Snow    
T = Trace of Precipitation, MM = Missing Value Source: NWS Daily Summary

Daily Weather History Graph

Daily Weather History Graph

Search for Another Location

Airport:

Trip Planner

Search our weather history database for the weather conditions in past years. The results will help you decide how hot, cold, wet, or windy it might be!

Date:

Astronomy

Mar. 16, 2014 Rise Set
Actual Time 7:34 AM EDT 7:32 PM EDT
Civil Twilight 7:07 AM EDT 7:58 PM EDT
Nautical Twilight 6:37 AM EDT 8:29 PM EDT
Astronomical Twilight 6:06 AM EDT 9:00 PM EDT
Moon 7:47 PM EDT (3/16) 7:17 AM EDT (3/16)
Length of Visible Light 12h 50m
Length of Day
11h 58m
Full, 100% of the Moon is Illuminated
Mar 16
Full
Mar 16
Full
Mar 23
Last Quarter
Mar 30
New
Apr 7
First Quarter

Hourly Weather History & Observations

Time (EDT) Temp. Windchill Dew Point Humidity Pressure Visibility Wind Dir Wind Speed Gust Speed Precip Events Conditions
12:51 AM 39.9 °F - 21.9 °F 49% 30.07 in 10.0 mi Calm Calm - N/A   Clear
1:51 AM 37.9 °F - 21.9 °F 53% 30.06 in 10.0 mi Calm Calm - N/A   Clear
2:51 AM 37.9 °F 35.5 °F 21.9 °F 53% 30.05 in 10.0 mi East 3.5 mph - N/A   Clear
3:51 AM 32.0 °F 26.4 °F 23.0 °F 69% 30.04 in 10.0 mi South 5.8 mph - N/A   Clear
4:51 AM 37.9 °F - 23.0 °F 55% 30.01 in 10.0 mi Calm Calm - N/A   Clear
5:51 AM 35.1 °F - 24.1 °F 64% 30.02 in 10.0 mi Calm Calm - N/A   Clear
6:51 AM 34.0 °F - 24.1 °F 67% 30.00 in 10.0 mi Calm Calm - N/A   Clear
7:51 AM 35.1 °F - 25.0 °F 67% 30.01 in 10.0 mi Calm Calm - N/A   Clear
8:51 AM 36.0 °F - 27.0 °F 70% 30.01 in 10.0 mi Calm Calm - N/A   Overcast
9:51 AM 37.9 °F - 28.0 °F 68% 30.01 in 10.0 mi Calm Calm - N/A   Overcast
10:51 AM 39.0 °F 36.8 °F 27.0 °F 62% 30.03 in 10.0 mi NNW 3.5 mph - N/A   Overcast
11:51 AM 43.0 °F 41.3 °F 28.0 °F 56% 30.04 in 10.0 mi Variable 3.5 mph - N/A   Overcast
12:51 PM 46.0 °F 41.9 °F 24.1 °F 42% 30.01 in 10.0 mi East 8.1 mph - N/A   Overcast
1:51 PM 42.1 °F 35.2 °F 32.0 °F 67% 30.01 in 10.0 mi ESE 12.7 mph - 0.00 in Rain Light Rain
2:51 PM 41.0 °F 35.2 °F 32.0 °F 70% 29.95 in 10.0 mi East 9.2 mph - 0.00 in Rain Light Rain
3:03 PM 41.0 °F 33.9 °F 33.1 °F 73% 29.90 in 8.0 mi East 12.7 mph - 0.01 in Rain Light Rain
3:49 PM 37.4 °F 30.8 °F 33.8 °F 87% 29.90 in 2.5 mi ENE 9.2 mph - 0.06 in Rain Rain
3:51 PM 37.9 °F 30.9 °F 34.0 °F 86% 29.96 in 2.5 mi East 10.4 mph - 0.07 in Rain Rain
4:00 PM 37.0 °F 30.4 °F 33.1 °F 86% 29.89 in 2.5 mi ENE 9.2 mph - 0.01 in Rain Rain
4:15 PM 37.0 °F 31.0 °F 34.0 °F 89% 29.88 in 3.0 mi ENE 8.1 mph - 0.02 in Rain Light Rain
4:51 PM 36.0 °F 29.0 °F 33.1 °F 89% 29.91 in 7.0 mi ENE 9.2 mph - 0.04 in Rain Light Rain
5:51 PM 35.1 °F 28.6 °F 32.0 °F 89% 29.89 in 2.5 mi ENE 8.1 mph - 0.03 in Snow Light Snow
5:53 PM 35.1 °F 28.6 °F 32.0 °F 89% 29.83 in 3.0 mi ENE 8.1 mph - 0.00 in Snow Light Snow
6:14 PM 35.1 °F 28.6 °F 32.0 °F 89% 29.84 in 1.5 mi ENE 8.1 mph - 0.01 in Snow Light Snow
6:51 PM 34.0 °F 28.0 °F 30.9 °F 89% 29.89 in 1.0 mi ENE 6.9 mph - 0.05 in Snow Light Snow
7:01 PM 33.1 °F 25.5 °F 30.9 °F 92% 29.81 in 0.8 mi ENE 9.2 mph - 0.02 in Snow Light Snow
7:11 PM 33.1 °F 26.9 °F 30.9 °F 92% 29.81 in 1.0 mi NNE 6.9 mph - 0.03 in Snow Light Snow
7:31 PM 34.0 °F 27.2 °F 30.9 °F 89% 29.82 in 2.5 mi ENE 8.1 mph - 0.05 in Rain Light Rain
7:36 PM 34.0 °F 27.2 °F 30.9 °F 89% 29.82 in 3.0 mi ENE 8.1 mph - 0.06 in Snow Light Snow
7:43 PM 34.0 °F 27.2 °F 30.9 °F 89% 29.82 in 3.0 mi East 8.1 mph - 0.06 in Snow Light Snow
7:46 PM 33.8 °F 25.3 °F 30.2 °F 87% 29.82 in 2.5 mi East 11.5 mph 18.4 mph 0.06 in Snow Light Snow
7:51 PM 34.0 °F 26.6 °F 30.9 °F 89% 29.89 in 2.5 mi East 9.2 mph - 0.07 in Snow Light Snow
7:53 PM 34.0 °F 27.2 °F 30.9 °F 89% 29.83 in 3.0 mi East 8.1 mph 18.4 mph 0.00 in Snow Light Snow
8:07 PM 34.0 °F 27.2 °F 30.9 °F 89% 29.83 in 4.0 mi East 8.1 mph - 0.01 in Snow Light Snow
8:21 PM 34.0 °F 28.8 °F 30.9 °F 89% 29.82 in 4.0 mi East 5.8 mph - 0.02 in Rain Light Rain
8:27 PM 33.1 °F 27.7 °F 30.9 °F 92% 29.82 in 4.0 mi Variable 5.8 mph - 0.02 in Snow Light Snow
8:34 PM 34.0 °F 29.8 °F 30.9 °F 89% 29.83 in 3.0 mi East 4.6 mph - 0.03 in Snow Light Snow
8:37 PM 34.0 °F 29.8 °F 30.9 °F 89% 29.83 in 2.5 mi East 4.6 mph - 0.04 in Snow Light Snow
8:46 PM 33.8 °F 27.7 °F 30.2 °F 87% 29.83 in 3.0 mi East 6.9 mph - 0.04 in Rain Light Rain
8:51 PM 33.1 °F 27.7 °F 30.9 °F 92% 29.89 in 3.0 mi East 5.8 mph - 0.04 in Rain Light Rain
9:02 PM 33.1 °F 25.5 °F 30.9 °F 92% 29.82 in 2.5 mi East 9.2 mph - 0.01 in Snow Light Snow
9:13 PM 33.1 °F 26.9 °F 30.0 °F 89% 29.83 in 1.5 mi East 6.9 mph - 0.02 in Snow Light Snow
9:44 PM 33.1 °F 27.7 °F 30.9 °F 92% 29.83 in 2.0 mi ENE 5.8 mph - 0.04 in Snow Light Snow
9:51 PM 33.1 °F 25.5 °F 30.9 °F 92% 29.89 in 2.0 mi East 9.2 mph - 0.04 in Snow Light Snow
9:58 PM 33.1 °F 26.9 °F 30.0 °F 89% 29.83 in 2.0 mi East 6.9 mph - 0.01 in Snow Light Snow
10:26 PM 33.1 °F 28.7 °F 30.0 °F 89% 29.83 in 1.8 mi East 4.6 mph - 0.04 in Rain Rain
10:39 PM 33.1 °F 26.1 °F 30.0 °F 89% 29.83 in 2.5 mi East 8.1 mph - 0.06 in Snow Light Snow
10:51 PM 33.1 °F 26.9 °F 30.0 °F 89% 29.89 in 2.5 mi Variable 6.9 mph - 0.07 in Snow Light Snow
11:03 PM 33.1 °F 24.9 °F 28.9 °F 85% 29.81 in 3.0 mi East 10.4 mph - 0.00 in Snow Light Snow
11:41 PM 32.0 °F 22.5 °F 28.0 °F 85% 29.81 in 6.0 mi ESE 12.7 mph 18.4 mph 0.01 in   Overcast
11:51 PM 32.0 °F 24.2 °F 28.0 °F 85% 29.86 in 5.0 mi East 9.2 mph 20.7 mph 0.01 in   Overcast